{"data":{"norad_id":65793,"epoch":"2026-05-25T02:55:15.637728Z","epoch_age_seconds":61548,"freshness":"FRESH","line1":"1 65793U 25218C   26145.12170877  .00005898  00000+0  41234-3 0  9995","line2":"2 65793  97.4522   7.9583 0002012 101.1158 259.0295 15.05661673 36477","mean_motion":15.05661673,"eccentricity":0.0002012,"inclination_deg":97.4522,"raan_deg":7.9583,"arg_perigee_deg":101.1158,"mean_anomaly_deg":259.0295,"bstar":0.00041234,"rev_number":3647,"period_min":95.63901544567,"perigee_km":548.0815128957,"apogee_km":550.86918410473,"semimajor_km":6927.6123485002,"source":"CELESTRAK","updated_at":"2026-05-25T13:38:20.936025Z"}}